Printer-friendly version

IAU Minor Planet Center

Minor Planet Center

MPEC 2006-K45 : 2006 KS38

The following Minor Planet Electronic Circular may be linked-to from your own Web pages, but must not otherwise be redistributed electronically.


Read MPEC 2006-K44 Read MPEC 2006-K46


M.P.E.C. 2006-K45                                Issued 2006 May 26, 15:44 UT

     The Minor Planet Electronic Circulars contain information on unusual
         minor planets and routine data on comets.  They are published
   on behalf of Commission 20 of the International Astronomical Union by the
          Minor Planet Center, Smithsonian Astrophysical Observatory,
                          Cambridge, MA 02138, U.S.A.

                  Supported in part by the Brinson Foundation
                  Supported in part by the TABASGO Foundation
             Prepared using the Tamkin Foundation Computer Network

                              MPC@CFA.HARVARD.EDU
          URL http://cfa-www.harvard.edu/iau/mpc.html  ISSN 1523-6714

                                   2006 KS38

Observations:
     K06K38S* C2006 05 23.29046 15 23 02.61 +36 08 37.9          18.6   EK045704
     K06K38S  C2006 05 23.30108 15 22 43.31 +35 52 22.8          19.3   EK045704
     K06K38S  C2006 05 23.31167 15 22 23.97 +35 36 07.4          18.1   EK045704
     K06K38S  C2006 05 23.32223 15 22 04.88 +35 19 50.9          18.0   EK045704
     K06K38S  C2006 05 25.15796 14 46 56.85 -09 09 09.7          16.8 V EK045703
     K06K38S  C2006 05 25.15956 14 46 55.41 -09 10 55.7          17.0 V EK045703
     K06K38S  C2006 05 25.16115 14 46 54.08 -09 12 41.6          17.1 V EK045703
     K06K38S  C2006 05 25.23481 14 45 47.77 -10 32 56.9          17.3 V EK045703
     K06K38S  C2006 05 25.23516 14 45 47.47 -10 33 19.3          17.3 V EK045703
     K06K38S  C2006 05 25.23550 14 45 47.17 -10 33 42.2          17.3 V EK045703
     K06K38S  C2006 05 25.23585 14 45 46.82 -10 34 03.7          17.2 V EK045703
     K06K38S  C2006 05 25.28293 14 45 05.11 -11 23 52.6          17.1 V EK045703
     K06K38S  C2006 05 25.28398 14 45 04.17 -11 24 58.5          17.1 V EK045703
     K06K38S  C2006 05 25.28450 14 45 03.74 -11 25 32.5          17.0 V EK045703
     K06K38S  C2006 05 26.11274 14 35 55.26 -23 23 05.2          18.4 R EK045734
     K06K38S  C2006 05 26.11510 14 35 53.70 -23 24 46.3          18.2 R EK045734
     K06K38S  C2006 05 26.11747 14 35 52.07 -23 26 27.9          18.5 R EK045734
     K06K38S  C2006 05 26.11992 14 35 50.54 -23 28 11.4          18.9 R EK045734
     K06K38S 5C2006 05 26.19266 14 35 07.16 -24 18 24.0          18.2 R EK045673
     K06K38S 5C2006 05 26.19880 14 35 03.13 -24 22 34.9                 EK045673
     K06K38S 5C2006 05 26.20690 14 34 57.76 -24 28 05.3                 EK045673
     K06K38S 5C2006 05 26.21491 14 34 52.41 -24 33 28.1                 EK045673
     K06K38S 5C2006 05 26.21836 14 34 50.12 -24 35 49.3                 EK045673
     K06K38S  C2006 05 26.22744 14 34 42.34 -24 41 52.5          17.4 V EK045703
     K06K38S  C2006 05 26.22778 14 34 42.09 -24 42 06.6          17.3 V EK045703
     K06K38S  C2006 05 26.52966 14 31 54.69 -27 46 49.2          18.2 V EK045E12
     K06K38S  C2006 05 26.52990 14 31 54.51 -27 46 57.5          18.6 V EK045E12
     K06K38S  C2006 05 26.53015 14 31 54.37 -27 47 05.1          18.3 V EK045E12
     K06K38S  C2006 05 26.53039 14 31 54.22 -27 47 13.5          18.3 V EK045E12
     K06K38S  C2006 05 26.53062 14 31 54.01 -27 47 21.8          17.9 V EK045E12

Observer details:
673 Table Mountain Observatory, Wrightwood.  Observer J. Young.  0.61-m f/16
    Cassegrain + CCD.
703 Catalina Sky Survey.  Observer A. R. Gibbs.  Measurers E. C. Beshore,
    E. J. Christensen, G. J. Garradd, A. R. Gibbs, A. D. Grauer, R. E. Hill,
    R. A. Kowalski, S. M. Larson, R. H. McNaught.  0.68-m Schmidt + CCD.
704 Lincoln Laboratory ETS, New Mexico.  Observers M. Bezpalko, L. Manguso,
    D. Torres, R. Kracke, M. Blythe, H. Love, G. Spitz.  Measurers J. Stuart,
    J. Kommers.  1.0-m f/2.15 reflector + CCD.
734 Farpoint Observatory.  Observer G. Hug.  0.7-m reflector + CCD.
E12 Siding Spring Survey.  Observer R. H. McNaught.  Measurers E. C. Beshore,
    E. J. Christensen, G. J. Garradd, A. R. Gibbs, A. D. Grauer, R. E. Hill,
    R. A. Kowalski, S. M. Larson, R. H. McNaught.  0.5-m Uppsala Schmidt + CCD.

Orbital elements:
2006 KS38                                                Earth MOID = 0.0226 AU
Epoch 2006 Mar. 6.0 TT = JDT 2453800.5                  MPC
M 346.05689              (2000.0)            P               Q
n   0.57520623     Peri.  101.06905     -0.85583054     -0.28730446
a   1.4319252      Node    63.49525     +0.00710212     -0.83800561
e   0.4565949      Incl.   28.72755     +0.51720755     -0.46389949
P   1.71           H   24.0           G   0.15           U   7
Residuals in seconds of arc
060523 704  0.4-  0.1-    060525 703  0.5-  0.2+    060526 673  0.4+  0.6-
060523 704  1.0+  0.2+    060525 703  0.2-  0.2-    060526 673  0.1-  1.7+
060523 704  0.1-  0.4+    060525 703  0.5-  0.2-    060526 673  0.1-  0.1+
060523 704  0.4-  0.5-    060525 703  0.1-  1.6-    060526 703  0.5-  0.0
060525 703  0.4-  0.2+    060526 734  0.3+  0.9+    060526 703  0.8-  0.5-
060525 703  0.4-  0.7+    060526 734  0.5+  0.3+    060526 E12  0.4+  0.7-
060525 703  1.1+  0.6+    060526 734  0.1-  0.5-    060526 E12  0.0   0.6-
060525 703  0.2-  0.3+    060526 734  1.4+  0.1+    060526 E12  0.2+  0.5+
060525 703  0.0   0.3+    060526 673  0.4-  0.8-    060526 E12  0.1+  0.4+
060525 703  0.0   0.7-    060526 673  0.3+  0.4-    060526 E12  0.8-  0.1+

Ephemeris:
2006 KS38                a,e,i = 1.43, 0.46, 29                  q = 0.7781
Date    TT    R. A. (2000) Decl.     Delta      r     Elong.  Phase     V
2006 05 25    14 48.97   -06 03.9    0.0275   1.038   156.1    23.3    17.4
2006 05 26    14 36.94   -21 57.2    0.0347   1.045   158.3    21.0    17.8
2006 05 27    14 28.10   -31 52.6    0.0436   1.053   154.1    24.9    18.5
2006 05 28    14 21.40   -38 16.2    0.0534   1.060   149.7    28.8    19.0
2006 05 29    14 16.20   -42 36.8    0.0637   1.067   146.3    31.8    19.5
2006 05 30    14 12.09   -45 42.9    0.0743   1.074   143.6    34.0    19.9
2006 05 31    14 08.81   -48 01.2    0.0852   1.082   141.5    35.7    20.3
2006 06 01    14 06.17   -49 47.4    0.0961   1.089   139.7    37.0    20.6
2006 06 02    14 04.04   -51 11.0    0.107    1.096   138.3    38.0    20.9
2006 06 03    14 02.33   -52 18.4    0.118    1.104   137.1    38.7    21.1
2006 06 04    14 00.96   -53 13.5    0.129    1.111   136.0    39.4    21.4
2006 06 05    13 59.89   -53 59.3    0.141    1.119   135.1    39.8    21.6
2006 06 06    13 59.06   -54 37.7    0.152    1.126   134.2    40.2    21.8
2006 06 07    13 58.45   -55 10.4    0.163    1.133   133.5    40.5    21.9
2006 06 08    13 58.03   -55 38.3    0.175    1.141   132.8    40.8    22.1
2006 06 09    13 57.78   -56 02.3    0.186    1.148   132.1    41.0    22.3
2006 06 10    13 57.68   -56 23.2    0.197    1.155   131.5    41.2    22.4
2006 06 11    13 57.72   -56 41.3    0.209    1.163   130.9    41.3    22.5
2006 06 12    13 57.88   -56 57.1    0.220    1.170   130.4    41.4    22.7
2006 06 13    13 58.15   -57 10.9    0.232    1.177   129.9    41.5    22.8
2006 06 14    13 58.52   -57 23.1    0.243    1.185   129.4    41.5    22.9

Gareth V. Williams           (C) Copyright 2006 MPC           M.P.E.C. 2006-K45

Read MPEC 2006-K44 Read MPEC 2006-K46


Our Web policy. Index to the CBAT/MPC/ICQ pages.


Valid HTML 4.01!